This is the latest recevied weather packets stored in our database for station/object KL1IO. If no packets are shown the sender has not sent any weather packets the latest 1 day(s).
| Time | Temp. | Humidity | Pressure | Rain* | Wind** | Luminosity | Snow |
|---|---|---|---|---|---|---|---|
| 1778015625 | 5.56° C | 99% | 1010.7 hPa | 0 mm | 0.45 m/s, 265° | 179 W/m² | - |
| 1778015322 | 5.56° C | 99% | 1011 hPa | 0 mm | 0 m/s | 156 W/m² | - |
| 1778015019 | 5.56° C | 98% | 1010.9 hPa | 1.27 mm | 0 m/s | 165 W/m² | - |
| 1778014715 | 5.56° C | 98% | 1011.1 hPa | 1.27 mm | 0 m/s | 163 W/m² | - |
| 1778014414 | 5.56° C | 98% | 1011 hPa | 0 mm | 0 m/s | 147 W/m² | - |
| 1778014110 | 5.56° C | 98% | 1011.2 hPa | 0 mm | 0 m/s | 140 W/m² | - |
| 1778013808 | 5.56° C | 98% | 1010.9 hPa | 0 mm | 0 m/s | 153 W/m² | - |
| 1778013505 | 5.56° C | 98% | 1010.9 hPa | 0 mm | 0.45 m/s, 266° | 198 W/m² | - |
| 1778013202 | 5.56° C | 98% | 1010.8 hPa | 0 mm | 0 m/s | 211 W/m² | - |
| 1778012898 | 5.56° C | 97% | 1010.8 hPa | 0 mm | 0.45 m/s, 267° | 184 W/m² | - |
| 1778012594 | 5.56° C | 97% | 1010.7 hPa | 0 mm | 0 m/s | 192 W/m² | - |
| 1778012291 | 5.56° C | 97% | 1010.8 hPa | 0 mm | 0 m/s | 221 W/m² | - |
| 1778011989 | 5.56° C | 97% | 1010.7 hPa | 0 mm | 0 m/s | 234 W/m² | - |
| 1778011687 | 5.56° C | 96% | 1010.7 hPa | 0 mm | 0 m/s | 206 W/m² | - |
| 1778011383 | 5.56° C | 96% | 1010.6 hPa | 0 mm | 0 m/s | 203 W/m² | - |
| 1778011078 | 5.56° C | 96% | 1010.5 hPa | 0 mm | 0 m/s | 197 W/m² | - |
| 1778010776 | 5.56° C | 97% | 1010.6 hPa | 0 mm | 0 m/s | 198 W/m² | - |
| 1778010473 | 5° C | 98% | 1010.7 hPa | 0 mm | 0 m/s | 187 W/m² | - |
| 1778010170 | 5° C | 99% | 1010.7 hPa | 0 mm | 0 m/s | 154 W/m² | - |
| 1778009865 | 5.56° C | 99% | 1010.8 hPa | 0 mm | 0 m/s | 139 W/m² | - |
| 1778009563 | 5.56° C | 99% | 1010.6 hPa | 0 mm | 0 m/s | 144 W/m² | - |
| 1778009262 | 5.56° C | 99% | 1010.8 hPa | 0 mm | 0 m/s | 155 W/m² | - |
| 1778008959 | 5.56° C | 99% | 1010.8 hPa | 0 mm | 0 m/s | 173 W/m² | - |
| 1778008657 | 5.56° C | 99% | 1010.5 hPa | 0 mm | 0 m/s | 183 W/m² | - |
| 1778008355 | 5.56° C | 99% | 1010.8 hPa | 0 mm | 0 m/s | 144 W/m² | - |
* Rain latest hour (hover to see other rain measurements)
** Current wind speed in m/s (hover to see current wind gust speed)